Погода в Каргасоке

Погода в Каргасоке : погода сейчас, прогноз погоды и архив. Всё, что Вы хотите узнать о погоде в Каргасоке!

Хотите узнать прогноз погоды в Каргасоке? Тогда Вам сюда: Погода в Каргасоке

Поиск расширенной информации на нашем сайте:

Полезная информация: Варикозно расширенные вены.

Другие новости

Новости СМИ2

Главная страница сайта

Новости сайта

02.10.2013

Напоминаем, что на нашем новом сайте вы можете получить высокодетализированные прогнозы погоды по пунктам России, СНГ и мира (включающие важные для авиации метеовеличины, такие как направление и скорость ветра, видимость, явления погоды, количество и форма облачности, нижняя и верхняя граница облачности), а также ознакомиться с разнообразными материалами по авиационной метеорологии и подборкой полезных ссылок на эту тему.

Сайт Метеоцентр.Азия посвящён разработке технологий оптимизации авиаметеорологического обслуживания, включая проектирование и перспективное создание нескольких автоматизированных авиаметеорологических систем:
- система выпуска высокодетальных прогностических карт явлений погоды для нижнего воздушного пространства по России и ближнему зарубежью;
- система верификации прогнозов TAF (выпускаемых синоптиками официальных АМСГ РФ и ближнего зарубежья) и AUTOTAF (выпускаемых сайтом Метеоцентр.Азия) - выявление ошибок, онлайн-сопоставление с фактической погодой METAR, автоматическое внесение коррективов в прогнозы при резком отклонении фактической погоды от прогноза, подсчёт оправдываемости прогнозов по элементам и в целом;
- система обработки, анализа и отображения авиаметеорологической информации для применения провайдерами метеорологической информации.

Рекомендуем: Вытянуть вмятину без покраски как убрать вмятину без покраски.

Погода в Каргасоке - сегодня

Время (UTC), дата Ветер
(°,м/с) 
Видим.   Явления Облачность Т
(°С)
Тd
(°С)
f(%) Тe
(°С)
Pmin
(гПа)
dP
(гПа)
Po
(мм)
O2
(г/м3)
Тmin Tmax R s Состояние
почвы
03 20.05.17 070 (В) 10 км  слаб. ливневой дождь со снегом  10/5 360 м кучево-дожд., средняя 
[Cb calv|As op]
+2.3 +0.4 87 +2  1016.7  -1.9  757  302           
06 20.05.17 040 (СВ) 20000 м  слаб. ливневой дождь  10/8 240 м кучево-дожд., средняя 
[Cb calv|As op]
+1.8 +1.1 95 1014.4  -2.3  755  302           
09 20.05.17 030 (СВ) 20000 м    9/9 420 м кучево-дожд. 
[Cb calv]
+4 +0.8 80 +2  1014.9  0.6  756  300           
12 20.05.17 340 (С) 20000 м    9/8 750 м средняя 
[Sc|Ac trans]
+5.2 +0.4 71 +6  1015.9  757  299    +5.2     
15 20.05.17 210 (ЮЗ) 20000 м    3/0 верхняя 
[Ci sp]
+4 +0.4 77 +4  1016.3  0.4  757  301           
18 20.05.17 200 (Ю) 20000 м    1/0 средняя 
[Ac trans]
+0.7 -0.4 92 1017.1  0.7  757  304           
21 20.05.17 200 (Ю) 20000 м    1/0 средняя 
[Ac trans]
-1.2 -1.7 96 -2  1017.2  757  307           
00 21.05.17 210 (ЮЗ) 20000 м    8/0 средняя 
[Ac trans]
+1.9 +1 94 +1  1017.6  0.5  758  303  -1.6        влажная 
03 21.05.17 140 (ЮВ) 20000 м    8/4 1000 м верхняя 
[Cu med, cong|Ci sp]
+7.5 +0.9 63 +7  1016.7  -0.7  757  297           
06 21.05.17 160 (Ю) 10 км  слаб. ливневой дождь  10/4 1000 м кучево-дожд., средняя, верхняя 
[Cb calv|Ac trans|Ci sp]
+7.4 -0.8 56 +6  1015.2  -1.6  756  297           
09 21.05.17 130 (ЮВ) 20000 м  {ливн. осадки}  10/4 600 м кучево-дожд., средняя, верхняя 
[Cb calv|Ac trans|Ci sp]
+10.8 +1 51 +10  1011.2  -3.8  753  292           
12 21.05.17 180 (Ю) 5{10}  20000 м  {ливн. осадки}  8/3 1000 м кучево-дожд., средняя, верхняя 
[Cb calv|Ac trans|Ci sp]
+15.8 +3.2 43 +16  1007.9  -3.2  751  286    +15.8  0.0     
15 21.05.17 170 (Ю) 5{13}  20000 м    6/0 средняя, верхняя 
[Ac trans|Ci sp]
+15.8 +5.1 49 +16  1004.5  -3.4  748  284           
18 21.05.17 190 (Ю) 6-12{13}  20000 м    8/0 средняя, верхняя 
[Ac trans|Ci fib]
+16.8 +6.2 50 +17  1003.1  -1.4  747  283           
21 21.05.17 210 (ЮЗ) 5{12}  20000 м    10/3 1000 м кучево-дожд., средняя 
[Cb calv|Ac und]
+18 +5.1 43 +18  1002.7  -0.3  747  282           
00 22.05.17 190 (Ю) 20000 м    10/0 средняя, верхняя 
[Ac trans|Ci sp]
+16.7 +5.3 47 +17  1002.2  -0.6  747  283  +15.7        сухая 
03 22.05.17 200 (Ю) 20000 м    10/3 1000 м средняя, верхняя 
[Sc|Ac trans|Ci sp]
+19.3 +4.6 38 +20  1002.2  0.1  747  280           
06 22.05.17 190 (Ю) 7-13{13}  20000 м    9/0 средняя, верхняя 
[Ac trans|Ci sp]
+23.6 +2.8 26 +24  1000.6  -1.4  746  276           
09 22.05.17 180 (Ю) 3{15}  20000 м    9/3 1000 м кучево-дожд., средняя, верхняя 
[Cb calv|Ac trans|Ci sp]
+23.1 +3 27 +23  998.6  -2.1  744  276           
12 22.05.17 200 (Ю) 9-17{17}  20000 м    3/1 1000 м верхняя 
[Cu med, cong|Ci sp]
+26.8 +1 19 +27  995.6  -2.9  742  272    +26.9       
15 22.05.17 190 (Ю) 6-11{17}  20000 м    4/0 средняя, верхняя 
[Ac trans|Ci sp]
+24.9 +2.9 24 +25  993.8  -1.8  740  273           
18 22.05.17 200 (Ю) 6-10{14}  20000 м    10/5 480 м верхняя 
[Sc|Ci sp]
+23.5 +4.9 30 +24  994.3  0.5  741  274           
21 22.05.17 220 (ЮЗ) 3{12}  20000 м    8/3 600 м средняя, верхняя 
[Sc|Ac trans|Ci sp]
+18.8 +11.1 61 +22  997.2  2.7  743  278           
00 23.05.17 250 (З) 20000 м    8/3 600 м верхняя 
[Sc|Ci sp]
+17.1 +11.8 71 +22  998.9  1.7  744  280  +16.8        сухая 
03 23.05.17 310 (СЗ) 20000 м    9/8 800 м средняя 
[Sc|Ac trans]
+12.5 +8.4 76 +12  1001.1  2.1  746  286  +12.5         
Время (UTC), дата Ветер
(°,м/с) 
Видим.   Явления Облачность Т
(°С)
Тd
(°С)
f(%) Тe
(°С)
Pmin
(гПа)
dP
(гПа)
Po
(мм)
O2
(г/м3)
Тmin Tmax R s Состояние
почвы

Для получения пояснительной информации подведите курсор к названию столбца.

ПОГОДА в Каргасоке - архив

Всё, что Вы хотите узнать о погоде в Каргасоке - удобно и подробно!

Выберите нужную дату (начиная с 1 января 2015* года) и нажмите кнопку "Найти".
Будут отображены архивные сводки погоды по пункту Каргасок, начиная с указанной даты.


Отображать данные в формате CSV (для использования в таблицах Excel)


Внимание! Наш архив погоды предназначен исключительно для личного некоммерческого использования в познавательных целях. Если Вам необходимы официальные справки о состоянии погоды (для производственных, юридических, коммерческих и т.п. целей), обращайтесь в органы Росгидромета.

*Примечание: данная дата относится к архиву по метеостанциям СССР (Россия, СНГ, Балтия).
Архив по метеостанциям Зарубежной Европы и Азии (кроме Китая) хранится 10 дней, по другим регионам земного шара (Китай, Африка, Америка, Австралия, Океания) - 1 день.

Каргасок - район местоположения метеостанции


Название, широта, долгота, высота метеостанции:
Каргасок 59.1°ш. 80.9°д. 59 м над ур. моря [Российская Федерация]

Дополнительная информация

В oтличие oт бoльшинства пoгoдных сайтoв мы публикуем пoдрoбную метеoинфoрмацию в детальнoм прoфессиoнальнoм фoрмате.

Характеристики температуры и влажнoсти вoздуха измеряются на высoте 2 м в тени вдали oт зданий и деревьев.
Скoрoсть ветра измеряется на высoте 10 м (на урoвне рoста челoвека скoрoсть ветра ниже в 1.5-2 раза). Если метеoстанция нахoдится в гoрoде или в лесу, тo скoрoсть ветра занижена на 2-4 м/с пo сравнению с oткрытым местoм. Скoрoсть ветра над акватoриями крупных рек и oзёр, а также на вершинах хoлмoв на 2-5 м/с выше, чем в oбычных услoвиях.
Атмoсфернoе давление в разных тoчках местнoсти мoжет значительнo oтличаться oт давления на метеoстанции, в зависимoсти oт услoвий рельефа (при пoдъёме на 10 м давление пoнижается примернo на 1 мм рт.ст.).